Starlink 31207

operational
NORAD ID: 59035 Int'l Des: 2024-038 Owner: SPXS Country: US Constellation: starlink
LEOCIRCULAR

Starlink 31207について

説明を読み込み中...

リアルタイム位置

3D地球を読み込み中...

次回通過

高度履歴

Altitude vs Time

uPlot chart will show altitude changes over time

軌道要素

1 59035U 24038N 25352.77495416 .00010921 00000-0 40622-3 0 9999
2 59035 43.0004 120.5040 0000747 255.4998 104.5771 15.27546153102486
Epoch: Dec 18, 2025 • Age: 24 hours

現在のステータス

高度 485.6 km
速度 7.62 km/s
衛星直下点 -14.65°S, 62.94°W
打ち上げ日 Feb 25, 2024
運用期間 1.8 years
タイプ internet

技術仕様

分類 Payload
質量 730.00 kg
乾燥質量 700.00 kg
総質量 730.00 kg
長さ 0.30 m
直径 4.10 m
スパン 29.00 m
形状 Box + pan
製造者 SPXS
バスタイプ Starlink V2M
フェーズステータス In Orbit
所有者/国 SPXS/US

大規模コンステレーション

Loading constellations...